When you browse on this site, cookies collect data to enhance your experience and personalize the content and advertising you see.
Visit our Privacy Policy to learn more. By continuing to use the site, you agree to this use of cookies and data.
  • In Czech Republic
  • List of Countries
  • For 7 days
  • Water Temperature
  • Satellite Maps
  • Weather Map
  • Weather Widgets
  • user-avatar
    Login

    Hourly Weather Pekin

    Today, 26 June, Wednesday

    Time Temperature Precipitation Wind Pressure Humidity
    00:00 +30°C° 0 mm 2 mps 752 mmHg 35%
    01:00 +29°C° 0 mm 2 mps 752 mmHg 37%
    02:00 +28°C° 0 mm 1 mps 752 mmHg 39%
    03:00 +27°C° 0 mm 1 mps 752 mmHg 41%
    04:00 +27°C° 0 mm 2 mps 752 mmHg 43%
    05:00 +26°C° 0 mm 2 mps 752 mmHg 45%
    06:00 +28°C° 0 mm 2 mps 752 mmHg 42%
    07:00 +29°C° 0 mm 2 mps 752 mmHg 40%
    08:00 +30°C° 0 mm 2 mps 752 mmHg 37%
    09:00 +32°C° 0 mm 2 mps 751 mmHg 34%
    10:00 +34°C° 0 mm 1 mps 751 mmHg 30%
    11:00 +36°C° 0 mm 1 mps 751 mmHg 27%
    12:00 +37°C° 0 mm 2 mps 750 mmHg 25%
    13:00 +38°C° 0 mm 2 mps 750 mmHg 24%
    14:00 +39°C° 0 mm 3 mps 749 mmHg 22%
    15:00 +39°C° 0 mm 3 mps 749 mmHg 22%
    16:00 +40°C° 0 mm 3 mps 748 mmHg 22%
    17:00 +40°C° 0 mm 3 mps 748 mmHg 22%
    18:00 +38°C° 0 mm 3 mps 748 mmHg 25%
    19:00 +36°C° 0 mm 4 mps 748 mmHg 28%
    20:00 +34°C° 0 mm 4 mps 748 mmHg 32%
    21:00 +33°C° 0 mm 3 mps 748 mmHg 34%
    22:00 +30°C° 0 mm 2 mps 749 mmHg 36%
    23:00 +29°C° 0 mm 1 mps 749 mmHg 38%

    Tomorrow, 27 June, Thursday

    Time Temperature Precipitation Wind Pressure Humidity
    00:00 +28°C° 0 mm 2 mps 749 mmHg 41%
    01:00 +28°C° 0 mm 2 mps 748 mmHg 43%
    02:00 +27°C° 0 mm 2 mps 748 mmHg 46%
    03:00 +26°C° 0 mm 2 mps 748 mmHg 50%
    04:00 +26°C° 0 mm 2 mps 748 mmHg 54%
    05:00 +26°C° 0 mm 2 mps 748 mmHg 58%
    06:00 +26°C° 0 mm 2 mps 748 mmHg 56%
    07:00 +27°C° 0 mm 2 mps 748 mmHg 54%
    08:00 +28°C° 0 mm 3 mps 748 mmHg 52%
    09:00 +29°C° 0 mm 2 mps 747 mmHg 47%
    10:00 +31°C° 0 mm 2 mps 747 mmHg 41%
    11:00 +32°C° 0 mm 2 mps 747 mmHg 36%
    12:00 +35°C° 0 mm 2 mps 746 mmHg 32%
    13:00 +37°C° 0 mm 2 mps 746 mmHg 28%
    14:00 +39°C° 0 mm 2 mps 745 mmHg 24%
    15:00 +39°C° 0 mm 2 mps 745 mmHg 23%
    16:00 +39°C° 0 mm 2 mps 745 mmHg 22%
    17:00 +40°C° 0 mm 2 mps 745 mmHg 20%
    18:00 +38°C° 0 mm 2 mps 745 mmHg 24%
    19:00 +37°C° 0 mm 2 mps 745 mmHg 29%
    20:00 +35°C° 0 mm 2 mps 745 mmHg 33%
    21:00 +34°C° 0 mm 2 mps 745 mmHg 35%
    22:00 +34°C° 0 mm 2 mps 746 mmHg 37%
    23:00 +33°C° 0 mm 3 mps 746 mmHg 40%

    Day after tomorrow, 28 June, Friday

    Time Temperature Precipitation Wind Pressure Humidity
    00:00 +32°C° 0 mm 2 mps 746 mmHg 40%
    01:00 +31°C° 0 mm 1 mps 745 mmHg 41%
    02:00 +31°C° 0 mm 1 mps 745 mmHg 42%
    03:00 +30°C° 0 mm 1 mps 745 mmHg 43%
    04:00 +30°C° 0 mm 2 mps 745 mmHg 43%
    05:00 +30°C° 0 mm 2 mps 746 mmHg 44%
    06:00 +30°C° 0 mm 2 mps 746 mmHg 44%
    07:00 +30°C° 0 mm 3 mps 746 mmHg 43%
    08:00 +30°C° 0 mm 3 mps 746 mmHg 43%
    09:00 +33°C° 0 mm 3 mps 746 mmHg 39%
    10:00 +35°C° 0 mm 3 mps 745 mmHg 34%
    11:00 +37°C° 0 mm 2 mps 745 mmHg 30%
    12:00 +38°C° 0 mm 2 mps 745 mmHg 27%
    13:00 +39°C° 0 mm 2 mps 744 mmHg 23%
    14:00 +40°C° 0 mm 2 mps 743 mmHg 20%
    15:00 +40°C° 0 mm 3 mps 743 mmHg 20%
    16:00 +41°C° 0 mm 4 mps 742 mmHg 19%
    17:00 +41°C° 0 mm 4 mps 742 mmHg 18%
    18:00 +40°C° 0 mm 4 mps 742 mmHg 21%
    19:00 +37°C° 0 mm 4 mps 742 mmHg 23%
    20:00 +36°C° 0 mm 4 mps 742 mmHg 26%
    21:00 +35°C° 0 mm 5 mps 742 mmHg 31%
    22:00 +34°C° 0 mm 6 mps 743 mmHg 36%
    23:00 +33°C° 0 mm 7 mps 743 mmHg 40%

    29 June, Saturday

    Time Temperature Precipitation Wind Pressure Humidity
    00:00 +32°C° 0 mm 5 mps 743 mmHg 43%
    01:00 +30°C° 0 mm 4 mps 743 mmHg 46%
    02:00 +28°C° 0 mm 3 mps 743 mmHg 48%
    03:00 +28°C° 0 mm 2 mps 743 mmHg 47%
    04:00 +27°C° 0 mm 2 mps 743 mmHg 46%
    05:00 +27°C° 0 mm 1 mps 743 mmHg 45%
    06:00 +29°C° 0 mm 2 mps 743 mmHg 37%
    07:00 +32°C° 0 mm 4 mps 743 mmHg 29%
    08:00 +35°C° 0 mm 5 mps 743 mmHg 21%
    09:00 +35°C° 0 mm 6 mps 743 mmHg 21%
    10:00 +36°C° 0 mm 6 mps 743 mmHg 21%
    11:00 +36°C° 0 mm 7 mps 743 mmHg 21%
    12:00 +38°C° 0 mm 7 mps 742 mmHg 20%
    13:00 +39°C° 0 mm 7 mps 742 mmHg 19%
    14:00 +40°C° 0 mm 7 mps 742 mmHg 18%
    15:00 +39°C° 0 mm 6 mps 742 mmHg 19%
    16:00 +39°C° 0 mm 6 mps 742 mmHg 19%
    17:00 +39°C° 0 mm 6 mps 742 mmHg 20%
    18:00 +38°C° 0 mm 6 mps 743 mmHg 22%
    19:00 +35°C° 0 mm 5 mps 743 mmHg 23%
    20:00 +34°C° 0 mm 5 mps 744 mmHg 25%
    21:00 +32°C° 0 mm 5 mps 744 mmHg 27%
    22:00 +30°C° 0 mm 4 mps 745 mmHg 29%
    23:00 +29°C° 0 mm 4 mps 746 mmHg 31%

    30 June, Sunday

    Time Temperature Precipitation Wind Pressure Humidity
    00:00 +28°C° 0 mm 4 mps 746 mmHg 33%
    01:00 +27°C° 0 mm 3 mps 746 mmHg 34%
    02:00 +27°C° 0 mm 3 mps 746 mmHg 36%
    03:00 +26°C° 0 mm 3 mps 746 mmHg 37%
    04:00 +26°C° 0 mm 3 mps 746 mmHg 37%
    05:00 +25°C° 0 mm 3 mps 746 mmHg 38%
    06:00 +26°C° 0 mm 4 mps 747 mmHg 36%
    07:00 +28°C° 0 mm 5 mps 747 mmHg 33%
    08:00 +29°C° 0 mm 7 mps 747 mmHg 31%
    09:00 +30°C° 0 mm 6 mps 747 mmHg 28%
    10:00 +32°C° 0 mm 6 mps 747 mmHg 25%
    11:00 +34°C° 0 mm 6 mps 747 mmHg 22%
    12:00 +35°C° 0 mm 6 mps 747 mmHg 21%
    13:00 +35°C° 0 mm 6 mps 747 mmHg 19%
    14:00 +36°C° 0 mm 6 mps 746 mmHg 18%
    15:00 +36°C° 0 mm 6 mps 746 mmHg 18%
    16:00 +36°C° 0 mm 6 mps 746 mmHg 18%
    17:00 +36°C° 0 mm 6 mps 746 mmHg 18%
    18:00 +34°C° 0 mm 5 mps 747 mmHg 20%
    19:00 +33°C° 0 mm 5 mps 747 mmHg 22%
    20:00 +30°C° 0 mm 5 mps 748 mmHg 24%
    21:00 +29°C° 0 mm 4 mps 748 mmHg 27%
    22:00 +28°C° 0 mm 4 mps 749 mmHg 29%
    23:00 +27°C° 0 mm 4 mps 749 mmHg 31%

    1 July, Monday

    Time Temperature Precipitation Wind Pressure Humidity
    00:00 +26°C° 0 mm 4 mps 750 mmHg 33%
    01:00 +26°C° 0 mm 3 mps 750 mmHg 34%
    02:00 +25°C° 0 mm 3 mps 750 mmHg 36%
    03:00 +25°C° 0 mm 3 mps 750 mmHg 38%
    04:00 +24°C° 0 mm 3 mps 751 mmHg 40%
    05:00 +24°C° 0 mm 3 mps 751 mmHg 41%
    06:00 +25°C° 0 mm 3 mps 751 mmHg 38%
    07:00 +27°C° 0 mm 3 mps 752 mmHg 34%
    08:00 +29°C° 0 mm 3 mps 752 mmHg 31%
    09:00 +30°C° 0 mm 3 mps 752 mmHg 28%
    10:00 +33°C° 0 mm 3 mps 751 mmHg 24%
    11:00 +35°C° 0 mm 3 mps 751 mmHg 21%
    12:00 +36°C° 0 mm 3 mps 751 mmHg 20%
    13:00 +37°C° 0 mm 3 mps 750 mmHg 18%
    14:00 +38°C° 0 mm 2 mps 749 mmHg 16%
    15:00 +38°C° 0 mm 2 mps 749 mmHg 16%
    16:00 +38°C° 0 mm 2 mps 749 mmHg 16%
    17:00 +39°C° 0 mm 2 mps 748 mmHg 16%
    18:00 +37°C° 0 mm 2 mps 748 mmHg 17%
    19:00 +36°C° 0 mm 2 mps 748 mmHg 19%
    20:00 +34°C° 0 mm 2 mps 749 mmHg 21%
    21:00 +32°C° 0 mm 2 mps 749 mmHg 22%
    22:00 +31°C° 0 mm 2 mps 749 mmHg 23%
    23:00 +30°C° 0 mm 2 mps 750 mmHg 24%
    Show more